カタログに戻る

DMSP 5D-2 F13 DEB

運用中SSO
NORAD 40600·DEBRIS·🇺🇸 United States

打ち上げ Mar 24, 1995 から Vandenberg Space Force Base

Loading…

次のパス (今後24時間)

TLE

最新Source: Space-Track

元期: Sep 12, 2026, 02:15 UTC

1 40600U 95015EX  26255.09426030  .00003851  00000-0  12888-2 0  9990
2 40600  98.8574 304.6372 0036556 129.8867 230.5542 14.37588357588366

AllMySatでDMSP 5D-2 F13 DEBをリアルタイム追跡

Download on the App Store